WB5CON Weather Reports


time (UTC)temp
F
wind
direction
speed
knots
gust
knots
rain 1hr
in
rain 24hr
in
rain mn
in
humidity
%
barometer
mb
20260906052007 81 128 0.0 0.0 0.00 0.00 0.00 87 1012.1
20260906045007 81 128 0.0 0.0 0.00 0.00 0.98 86 1012.1
20260906044007 81 128 0.0 0.0 0.00 0.00 0.98 86 1012.1
20260906042007 82 128 0.0 0.0 0.00 0.00 0.98 85 1012.1
20260906041007 82 128 0.0 0.0 0.00 0.00 0.98 84 1012.1
20260906040007 82 128 0.0 0.0 0.00 0.00 0.98 84 1012.1
20260906034007 83 128 0.0 0.0 0.01 0.00 0.98 83 1012.0
20260906031007 83 128 0.0 0.0 0.02 0.00 0.98 81 1011.9
20260906023007 85 128 0.0 0.0 0.04 0.00 0.97 78 1011.6
20260906022007 85 128 0.0 0.0 0.06 0.00 0.97 77 1011.6
20260906014007 86 128 0.0 0.0 0.03 0.00 0.93 74 1011.1
20260906012007 87 128 0.0 0.0 0.01 0.00 0.91 73 1011.0
20260906010007 88 128 0.0 0.0 0.00 0.00 0.90 71 1010.8
20260906003007 89 128 0.0 0.0 0.04 0.00 0.90 67 1010.5
20260906000007 92 128 0.0 0.0 0.09 0.00 0.90 62 1010.7
20260905235007 92 128 0.0 0.0 0.08 0.00 0.89 60 1010.8
20260905234007 93 128 0.0 0.0 0.07 0.00 0.88 60 1010.8
20260905231007 95 128 0.0 0.0 0.41 0.00 0.81 55 1010.7
20260905223007 97 128 0.0 4.3 0.81 0.00 0.81 50 1010.8
20260905221007 98 117 0.0 2.6 0.40 0.00 0.40 46 1010.8
20260905214007 100 60 0.0 0.0 0.00 0.00 0.00 43 1010.8
20260905213007 99 142 0.0 0.0 0.00 0.00 0.00 44 1010.9
20260905212007 100 132 0.0 0.9 0.00 0.00 0.00 43 1010.9
20260905210007 100 54 1.7 4.3 0.00 0.00 0.00 42 1011.1
20260905205007 100 71 1.7 7.8 0.00 0.00 0.00 44 1011.2
20260905203007 101 71 0.0 6.1 0.00 0.00 0.00 42 1011.4
20260905194007 102 69 0.9 6.1 0.00 0.00 0.00 42 1012.3
20260905192007 102 72 0.9 2.6 0.00 0.00 0.00 42 1012.7
20260905185007 101 147 3.5 7.8 0.00 0.00 0.00 42 1013.0
20260905183007 99 309 0.0 0.9 0.00 0.00 0.00 47 1013.2
20260905182007 97 26 0.0 2.6 0.00 0.00 0.00 51 1013.3
20260905181007 97 88 2.6 6.1 0.00 0.00 0.00 51 1013.4
20260905180007 99 48 0.0 5.2 0.00 0.00 0.00 50 1013.4
20260905173007 97 23 1.7 4.3 0.00 0.00 0.00 51 1013.6
20260905172007 98 11 0.0 5.2 0.00 0.00 0.00 51 1013.7
20260905165007 98 86 0.0 0.0 0.00 0.00 0.00 52 1014.0
20260905160007 95 272 0.0 0.0 0.00 0.00 0.00 58 1014.7
20260905155006 95 80 0.0 4.3 0.00 0.00 0.00 56 1014.6
20260905154007 94 354 2.6 4.3 0.00 0.00 0.00 57 1014.7
20260905145007 89 113 0.0 0.0 0.00 0.00 0.00 70 1014.9
20260905143007 87 116 0.0 0.0 0.00 0.00 0.00 73 1014.9
20260905140007 84 119 0.0 0.0 0.00 0.00 0.00 79 1014.9
20260905134009 82 120 0.0 0.0 0.00 0.00 0.00 82 1014.6
20260905133007 81 109 0.0 0.0 0.00 0.00 0.00 86 1014.8
20260905132007 79 109 0.0 2.6 0.00 0.00 0.00 89 1014.9
20260905131007 78 84 1.7 5.2 0.00 0.00 0.00 92 1014.9
20260905125007 75 147 0.0 0.0 0.00 0.00 0.00 94 1015.0
20260905120007 74 147 0.0 0.0 0.00 0.00 0.00 94 1014.8
20260905114007 74 147 0.0 0.0 0.00 0.00 0.00 94 1014.7
20260905112007 75 147 0.0 0.0 0.00 0.00 0.00 94 1014.4
20260905111007 75 147 0.0 0.0 0.00 0.00 0.00 93 1014.4
20260905110007 75 147 0.0 0.0 0.00 0.00 0.00 93 1014.3
20260905105007 75 147 0.0 0.0 0.00 0.00 0.00 94 1014.2
20260905102007 75 147 0.0 0.0 0.00 0.00 0.00 93 1013.9
20260905100007 75 147 0.0 0.0 0.00 0.00 0.00 93 1013.8
20260905092007 76 147 0.0 0.0 0.00 0.00 0.00 92 1013.5
20260905091007 76 147 0.0 0.0 0.00 0.00 0.00 92 1013.5
20260905085007 76 147 0.0 0.0 0.00 0.00 0.00 92 1013.3
20260905081007 76 147 0.0 0.0 0.00 0.00 0.00 91 1013.4
20260905080007 76 147 0.0 0.0 0.00 0.00 0.00 91 1013.5
20260905075007 76 147 0.0 0.0 0.00 0.00 0.00 90 1013.5
20260905074007 77 147 0.0 0.0 0.00 0.00 0.00 90 1013.5
20260905073007 77 147 0.0 0.0 0.00 0.00 0.00 89 1013.4
20260905071006 77 147 0.0 0.0 0.00 0.00 0.00 89 1013.5
20260905062007 78 147 0.0 0.0 0.00 0.00 0.00 87 1013.8